Location: *
(45.5667°S, 177.5167°W)
Time: 15:44:47
(UTC+00:00)

Cosmos 1503 Rocket - Pass Details

Date: 29 May 2022
Orbit: 751 x 791 km, 74.0° (Epoch: 28 June)

Event Time Altitude Azimuth Distance (km) Brightness Sun altitude
Rises 05:29:41 0° 198° (SSW) 3,245 7.3 -12.3°
Reaches altitude 10° 05:32:08 10° 192° (SSW) 2,312 6.4 -12.7°
Maximum altitude 05:37:14 50° 116° (ESE) 965 4.1 -13.5°
Drops below altitude 10° 05:42:17 10° 40° (NE) 2,291 6.2 -14.4°
Sets 05:44:43 0° 35° (NE) 3,212 7.0 -14.8°
